Vertical_Velocity
-1 -1 -0 1 -1 2 4 -4 -1 -2 -1 -2 -4 -1 -3 -1 -0 -3 -1 -0 -1 -1 -3 1 -1 -1 -5 -3 -3 -2 -2 -2 -2 -2 -1 -2 1 3 2 -1 -1 -3 -4 1 -0 2 3 3 0
1 -1 1 -1 -0 -1 0 -2 -6 -0 0 0 2 -0 -2 -3 -2 -1 -2 -1 1 1 -2 -5 -1 -1 -0 -2 -4 -4 -3 -2 -3 -1 -1 -3 -1 -1 -2 -0 -3 -3 1 1 -1 1 -1 -2 -2
0 -0 2 0 0 0 -6 -3 -1 -3 2 1 1 -3 -0 -2 -1 1 1 3 3 2 3 -1 -4 1 -2 0 -1 -1 -1 -1 -3 -1 -1 -1 -0 1 -1 -1 -3 -3 1 -0 -1 0 -0 -2 -1
-0 -1 2 3 2 -2 -4 2 -0 -0 -6 -6 -6 -2 -0 -3 -5 -2 2 0 1 -0 1 -0 -1 -2 -1 -2 -1 -1 -0 -3 -3 1 -2 -0 -2 -1 -1 -1 -1 2 1 2 0 3 2 -1 -2
-1 1 -1 2 3 -2 -2 1 -5 -2 2 -6 -1 -1 -1 -0 -4 1 2 2 0 1 2 3 2 1 -1 0 -1 -1 -0 0 -1 -1 -0 -1 0 -1 -1 -2 -5 1 3 1 4 2 2 -2 -1
-1 1 0 -0 1 -1 -0 -0 -1 -2 3 -1 -0 -2 2 -2 -3 0 2 0 1 3 2 3 2 2 0 -1 -1 0 -2 -3 -3 -2 -2 1 1 -2 -0 -2 -0 5 4 2 3 2 3 2 -2
0 0 -0 2 1 -1 1 1 -1 -1 1 -1 3 9 6 -5 -1 1 1 2 4 2 0 -1 -2 -2 -1 0 -1 -1 0 -2 -4 -1 -2 -3 -5 -1 2 -0 -1 1 -3 -2 6 6 3 4 4
-3 0 2 4 5 -0 -3 2 1 1 -1 2 4 7 1 2 3 2 4 2 -2 -2 -1 -1 0 0 0 -1 1 1 0 -2 -3 -0 -1 -2 -1 2 5 -6 -7 1 9 8 1 5 3 4 2
-1 1 3 6 7 -4 -1 1 1 2 -1 2 -1 0 1 3 3 0 -3 -2 -1 0 -1 -0 0 1 -2 -0 -1 0 -1 -1 1 -0 1 -1 2 0 -1 1 -10 2 -3 -3 5 1 6 1 1
-2 1 7 -4 -4 -0 -9 0 -4 -1 0 2 -2 -6 -3 -1 2 6 5 4 5 4 3 2 1 -2 -3 -4 -4 -2 1 1 0 -0 -1 1 2 -0 4 4 -4 -2 3 -3 -4 2 2 2 1
1 8 -6 2 -4 -3 4 -8 1 -4 2 2 -1 -6 -3 0 0 3 3 4 1 -2 -1 -3 -2 -4 -1 1 -3 -2 -2 -1 -3 -3 3 1 4 10 14 14 -6 3 5 -3 -0 0 -1 0 -0
-1 2 -3 1 -6 1 9 8 0 -3 4 0 -7 -8 -4 -3 -3 -4 -3 -1 -2 -1 -3 -4 -1 4 2 3 3 1 -3 -1 -1 3 5 2 7 -3 15 12 12 -12 -6 -0 0 -2 3 2 0
1 2 3 3 2 5 -3 3 -6 3 -1 -7 -1 1 1 -0 -3 -1 -1 -2 -2 2 -0 -1 -1 -3 -4 -5 -0 -2 -4 -8 -2 -0 3 -1 0 7 6 -1 -1 14 1 7 2 0 2 5 1
-1 -1 -1 2 9 0 -1 -2 -3 1 -3 -4 -5 -2 -3 -3 4 2 -5 -2 -0 -2 1 -4 4 0 -0 1 3 -2 -3 -3 0 -1 2 3 -3 2 4 2 6 -15 6 12 4 1 0 7 3
2 1 1 3 -0 -2 2 -0 5 2 10 11 3 2 -11 0 8 7 5 13 3 2 -0 5 -6 -7 1 -1 1 -3 1 -2 -0 -2 11 -0 -3 3 6 17 17 8 -6 5 6 2 0 3 0
-1 -3 -2 5 -3 -2 2 -1 1 -2 -2 -2 -1 4 1 -3 2 2 1 0 -1 10 10 5 3 7 6 -3 -3 -2 -3 -6 -4 -1 -1 -1 4 3 15 26 58 24 -1 2 1 1 3 6 4
1 1 -1 6 1 -4 -9 1 6 -4 -7 -0 -2 4 5 -2 -6 -6 -4 -3 2 2 8 7 0 0 -7 -2 -3 -2 -4 -1 4 3 -4 -2 2 -1 11 24 5 27 74 28 35 16 -1 4 6
-2 0 -4 -4 2 -1 -2 1 -3 -8 -2 1 -4 -7 -4 -3 -2 -2 6 1 3 2 8 3 6 4 4 -6 2 7 -2 4 -6 2 2 2 8 1 -6 6 5 -0 112 19 -10 34 55 7 8
-2 -0 -1 2 -2 -9 -1 2 4 -2 -4 -2 -2 0 1 0 -0 -2 -1 2 -1 0 1 -4 2 4 -0 -1 -0 -3 -7 -3 10 1 4 -12 0 -2 6 3 -0 3 10 2 -11 11 82 55 9
-4 -2 1 6 -1 -20 -4 -0 -4 -3 -1 4 6 2 -1 -4 -2 -5 -8 -5 -0 7 4 -2 -3 1 -0 -3 -7 -8 -3 -4 0 2 11 -0 0 2 5 11 -6 4 4 -4 -7 -8 -11 35 41
-1 -1 -1 -8 1 -0 -14 -5 0 -4 -1 0 -2 1 1 -2 -5 -3 -2 -3 -1 -5 0 0 -5 -0 1 10 -2 -3 -3 -0 -3 -3 9 8 2 3 -1 2 2 -7 7 -5 5 14 5 17 32
2 -4 -1 0 -10 -6 3 -63 -8 -2 4 2 1 3 5 5 4 3 1 2 2 4 -1 -1 0 -4 -3 2 7 5 8 -3 2 -0 6 1 5 4 4 -3 -0 1 -3 10 -2 14 6 16 32
4 -4 -3 -3 -3 -18 14 -46 20 3 4 -7 2 -3 -2 1 1 -5 -1 3 3 -1 4 2 4 4 1 -2 -7 -4 -1 2 3 3 5 5 6 3 -2 5 6 -4 -15 47 9 41 19 8 11
-5 -2 -4 -4 -0 -25 16 -9 27 -5 2 3 0 -1 1 -7 -1 -3 -7 3 4 3 4 -1 8 1 2 1 -1 3 4 1 -0 -1 1 1 3 5 -4 1 3 -0 -4 -1 33 -4 -4 -3 10
-2 -4 -21 -16 -5 -3 0 -15 7 -5 -2 -2 -4 -3 -8 -3 -3 3 3 -0 -6 -1 -0 -2 -2 2 4 6 6 0 0 -0 -3 2 -1 3 -1 2 7 -6 -5 6 2 -5 10 -5 -2 -4 -0
7 9 4 -42 -9 3 -10 -20 -18 2 3 -2 -5 -6 0 5 -0 -1 -2 1 -5 -7 -6 -1 -3 -1 1 -3 1 3 1 8 13 12 -1 2 -5 -1 3 1 -4 4 2 -6 -2 -4 -6 0 -0
6 8 6 -17 5 -27 24 -2 -23 -4 -4 -4 -1 4 0 -0 3 -1 0 -4 -4 -10 -3 8 -6 5 13 12 -4 -5 18 7 -3 -5 -3 2 -4 -1 0 1 10 -3 1 -9 -3 -5 29 6 4
2 4 -3 12 -17 -24 2 -9 1 -8 -4 -6 1 0 1 -0 -1 3 -2 -3 -6 5 -10 5 1 4 7 -12 -6 -2 -1 -3 -5 -2 2 -3 -2 -6 0 4 -0 -0 8 3 -8 7 2 -1 1
6 6 -2 -1 11 -4 -30 13 5 7 -5 -6 -5 -5 0 3 5 5 8 6 -1 22 -8 12 2 -4 -9 -4 -1 2 3 3 1 -1 1 -2 -1 -1 -3 1 38 26 -4 8 18 -10 -2 1 -0
1 0 0 2 -6 8 6 -36 -6 -1 2 2 -1 -0 4 2 0 1 1 -0 -3 4 9 8 3 0 -5 -3 5 1 -0 -3 -5 -11 -8 -1 -8 -2 -3 0 5 8 30 11 5 11 13 -0 4
Height
5832 5833 5834 5836 5840 5839 5839 5840 5841 5842 5843 5844 5846 5847 5849 5849 5849 5851 5849 5848 5850 5850 5850 5850 5851 5851 5851 5851 5852 5851 5852 5852 5852 5852 5853 5854 5854 5854 5855 5855 5854 5854 5852 5854 5855 5856 5855 5854 5853
5830 5832 5833 5834 5837 5836 5837 5838 5838 5840 5842 5843 5845 5846 5845 5846 5846 5846 5847 5848 5849 5849 5849 5849 5849 5849 5850 5850 5850 5849 5850 5850 5850 5849 5849 5850 5850 5851 5851 5852 5852 5851 5849 5850 5851 5851 5851 5850 5849
5828 5830 5831 5832 5834 5834 5835 5834 5836 5841 5843 5843 5843 5844 5844 5844 5843 5844 5845 5847 5848 5849 5848 5848 5848 5848 5848 5848 5849 5849 5848 5847 5847 5847 5848 5848 5847 5847 5848 5847 5847 5845 5845 5846 5846 5846 5846 5847 5846
5826 5829 5830 5830 5832 5833 5833 5834 5834 5839 5840 5840 5840 5842 5843 5842 5842 5843 5844 5845 5846 5846 5846 5846 5847 5846 5847 5847 5847 5847 5846 5845 5844 5843 5843 5843 5844 5844 5843 5843 5842 5840 5840 5842 5842 5843 5843 5842 5843
5825 5827 5828 5829 5830 5830 5830 5832 5834 5836 5836 5837 5838 5839 5840 5840 5842 5842 5843 5844 5845 5846 5845 5844 5843 5843 5843 5843 5843 5843 5843 5843 5842 5842 5841 5841 5840 5838 5838 5837 5836 5836 5836 5835 5836 5838 5839 5838 5838
5823 5825 5827 5828 5827 5826 5828 5830 5832 5833 5836 5836 5839 5838 5839 5838 5839 5841 5842 5842 5842 5842 5841 5840 5840 5840 5839 5839 5839 5839 5839 5839 5839 5838 5837 5837 5836 5835 5833 5831 5829 5829 5829 5830 5831 5832 5832 5833 5834
5822 5823 5825 5825 5825 5825 5825 5826 5828 5830 5832 5834 5836 5836 5838 5836 5837 5838 5838 5838 5837 5837 5837 5837 5837 5836 5835 5835 5834 5834 5834 5834 5833 5832 5832 5831 5830 5829 5828 5825 5824 5826 5825 5823 5824 5826 5827 5828 5828
5819 5821 5823 5824 5823 5823 5824 5824 5824 5826 5829 5832 5834 5834 5835 5833 5833 5835 5835 5835 5835 5834 5833 5832 5832 5831 5831 5830 5830 5829 5828 5828 5827 5826 5827 5827 5825 5823 5821 5819 5818 5816 5815 5817 5819 5820 5822 5823 5822
5815 5819 5821 5822 5820 5821 5821 5823 5823 5823 5826 5829 5829 5830 5828 5829 5829 5830 5830 5830 5829 5828 5827 5827 5827 5826 5826 5826 5825 5824 5823 5822 5821 5820 5819 5818 5817 5815 5813 5811 5812 5813 5812 5811 5811 5812 5815 5817 5818
5812 5815 5817 5817 5817 5817 5817 5819 5817 5819 5823 5823 5823 5824 5823 5824 5824 5825 5826 5826 5825 5823 5822 5820 5820 5820 5820 5819 5818 5817 5816 5815 5814 5813 5812 5810 5809 5806 5804 5803 5803 5807 5809 5808 5808 5807 5807 5809 5811
5809 5812 5811 5811 5812 5813 5812 5815 5813 5816 5821 5818 5814 5817 5818 5820 5821 5822 5821 5819 5818 5817 5817 5817 5817 5817 5816 5814 5812 5811 5809 5808 5807 5804 5802 5799 5797 5795 5794 5792 5793 5795 5799 5801 5800 5801 5801 5803 5804
5806 5807 5808 5807 5808 5809 5810 5810 5810 5811 5817 5810 5808 5810 5813 5814 5814 5814 5812 5811 5809 5809 5809 5810 5809 5809 5808 5805 5804 5804 5802 5800 5799 5796 5793 5792 5791 5789 5785 5782 5783 5786 5788 5791 5793 5794 5794 5794 5797
5801 5803 5803 5805 5804 5803 5801 5804 5802 5809 5805 5804 5806 5806 5805 5804 5805 5804 5804 5803 5802 5802 5802 5803 5803 5802 5801 5799 5796 5795 5796 5792 5789 5787 5786 5784 5780 5776 5773 5773 5774 5774 5775 5779 5783 5785 5786 5786 5788
5795 5798 5800 5800 5799 5797 5794 5801 5800 5802 5798 5801 5800 5800 5798 5795 5796 5798 5799 5797 5797 5796 5796 5794 5795 5793 5791 5789 5785 5785 5784 5783 5780 5775 5774 5773 5770 5768 5763 5764 5765 5766 5766 5769 5773 5774 5776 5778 5780
5789 5792 5794 5795 5792 5792 5790 5799 5797 5798 5796 5798 5795 5793 5789 5790 5790 5790 5791 5791 5790 5789 5788 5789 5785 5783 5779 5775 5774 5773 5771 5769 5767 5766 5765 5764 5761 5756 5754 5750 5751 5753 5754 5757 5759 5762 5767 5768 5771
5783 5786 5789 5790 5788 5786 5783 5792 5793 5789 5788 5785 5783 5784 5784 5783 5782 5781 5782 5782 5781 5780 5779 5776 5774 5771 5768 5764 5762 5762 5761 5760 5758 5757 5755 5753 5751 5749 5744 5742 5739 5740 5742 5745 5748 5752 5753 5756 5759
5778 5780 5784 5785 5782 5778 5775 5779 5788 5782 5777 5781 5779 5778 5778 5778 5776 5775 5773 5772 5770 5768 5766 5764 5760 5758 5754 5752 5752 5752 5750 5748 5743 5744 5744 5741 5740 5740 5736 5730 5723 5722 5729 5732 5732 5733 5739 5744 5747
5772 5773 5776 5780 5778 5769 5773 5771 5775 5774 5772 5772 5773 5772 5771 5769 5767 5764 5762 5761 5759 5757 5755 5752 5748 5744 5742 5740 5740 5738 5735 5734 5732 5731 5731 5730 5728 5730 5727 5723 5721 5719 5714 5723 5725 5711 5722 5729 5733
5769 5768 5770 5773 5773 5762 5768 5764 5766 5763 5764 5763 5762 5759 5758 5757 5754 5751 5748 5745 5743 5742 5740 5736 5732 5730 5727 5725 5724 5723 5723 5722 5720 5721 5720 5720 5719 5719 5717 5713 5711 5713 5714 5719 5715 5710 5709 5715 5719
5764 5763 5767 5767 5766 5759 5760 5757 5756 5756 5755 5753 5751 5749 5747 5744 5740 5737 5735 5732 5729 5727 5725 5724 5721 5718 5715 5712 5711 5711 5712 5710 5709 5708 5705 5705 5706 5706 5706 5704 5701 5703 5705 5707 5703 5702 5702 5697 5707
5757 5757 5755 5753 5755 5753 5749 5744 5748 5747 5745 5743 5742 5739 5735 5731 5726 5723 5720 5717 5713 5711 5710 5707 5705 5702 5700 5699 5696 5696 5695 5694 5694 5695 5692 5692 5691 5691 5691 5691 5689 5688 5690 5693 5690 5689 5689 5693 5696
5749 5754 5747 5744 5741 5738 5737 5731 5736 5734 5731 5728 5724 5721 5717 5714 5710 5706 5704 5702 5700 5697 5694 5693 5689 5686 5682 5681 5681 5679 5677 5678 5679 5681 5680 5679 5677 5677 5677 5679 5676 5677 5678 5683 5678 5678 5679 5683 5688
5743 5741 5739 5735 5731 5726 5723 5724 5716 5713 5713 5710 5707 5703 5700 5696 5692 5689 5685 5681 5678 5676 5674 5670 5667 5666 5664 5663 5664 5664 5663 5663 5662 5663 5665 5665 5665 5662 5662 5664 5663 5664 5667 5667 5673 5669 5670 5671 5675
5736 5733 5730 5726 5722 5715 5717 5711 5707 5702 5698 5695 5691 5687 5683 5678 5671 5666 5663 5659 5656 5654 5651 5649 5647 5646 5646 5645 5644 5644 5644 5643 5645 5645 5647 5649 5649 5648 5648 5649 5650 5650 5653 5656 5655 5654 5658 5660 5662
5729 5724 5718 5713 5709 5707 5702 5697 5695 5689 5684 5678 5674 5669 5662 5655 5648 5641 5637 5634 5632 5632 5630 5630 5630 5629 5627 5626 5625 5626 5627 5627 5628 5629 5630 5632 5634 5634 5632 5631 5635 5636 5640 5643 5640 5641 5647 5650 5652
5717 5715 5711 5702 5699 5696 5689 5684 5681 5675 5669 5663 5655 5648 5639 5632 5627 5623 5619 5615 5611 5611 5610 5609 5610 5613 5610 5610 5609 5608 5607 5609 5611 5612 5612 5613 5615 5616 5614 5616 5616 5619 5622 5628 5633 5633 5635 5638 5639
5706 5700 5695 5690 5687 5682 5676 5668 5661 5655 5647 5639 5631 5624 5618 5613 5607 5602 5598 5594 5590 5589 5592 5593 5593 5592 5592 5591 5593 5593 5588 5587 5589 5589 5589 5590 5592 5597 5597 5598 5599 5602 5602 5610 5615 5620 5617 5626 5630
5690 5686 5681 5676 5668 5661 5664 5655 5641 5635 5628 5619 5612 5605 5599 5592 5586 5582 5579 5580 5579 5574 5574 5574 5573 5573 5572 5577 5575 5572 5569 5567 5567 5566 5567 5567 5569 5573 5578 5581 5582 5583 5586 5591 5595 5600 5608 5612 5617
5682 5673 5667 5661 5654 5645 5639 5640 5626 5615 5607 5600 5593 5587 5580 5573 5568 5567 5565 5563 5563 5561 5557 5554 5554 5552 5554 5552 5550 5547 5545 5544 5543 5543 5543 5543 5545 5548 5553 5556 5555 5560 5565 5573 5576 5581 5587 5593 5599
5668 5662 5655 5644 5639 5629 5621 5615 5610 5601 5591 5582 5573 5564 5559 5554 5551 5549 5548 5547 5547 5544 5538 5535 5532 5531 5528 5527 5524 5521 5520 5517 5515 5516 5514 5515 5519 5521 5525 5530 5531 5535 5540 5548 5555 5562 5570 5576 5582